Location: Newark
(21.1200°N, 73.4000°E)
Time: 11:51:03
(UTC+00:00)

SR - Pass Details

Date: 05 February 2020
Orbit: 575 x 881 km, 66.7° (Epoch: 19 February)

Event Time Altitude Azimuth Distance (km) Brightness Sun altitude
Rises 13:12:40 0° 188° (S) 3,303 ? -4.0°
Reaches altitude 10° 13:15:06 10° 183° (S) 2,413 ? -4.5°
Maximum altitude 13:20:31 50° 109° (ESE) 1,078 ? -5.7°
Drops below altitude 10° 13:26:11 10° 35° (NE) 2,527 ? -7.0°
Sets 13:28:46 0° 30° (NNE) 3,473 ? -7.6°
